[[{"header":{"parameterUnit":"m.s-1","parameterCategory":1,"la1":30.2991,"la2":30.254,"lo1":-89.0895,"lo2":-89.0444,"dy":0.0017,"dx":0.0017,"nx":28,"ny":28,"refTime":"2023-07-19T03:00:00:Z","depth":0,"parameterNumber":2,"parameterNumberName":"U-component_of_WINDS"},"data":[0,0,0,0,0,0,0,0,0,0,0,0,0,0,0,0,0,0,0,0,0,0,0,0,0,0,0,0,0,0,0,0,0,0,0,0,0,0,0,0,0,0,0,0,0,0,0,0,0,0,0,0,0,0,0,0,0,0,2.155,2.1551,0,2.1623,2.1624,2.1625,2.1639,2.1638,2.1637,2.1637,2.1713,2.1716,2.1719,0,0,0,0,0,0,0,0,0,0,0,0,0,2.1425,2.1427,2.155,2.1551,2.1552,2.1623,2.1624,2.1625,2.1639,2.1638,2.1637,2.1637,2.1713,2.1716,2.1719,0,0,0,0,0,0,0,0,0,0,0,0,0,2.1487,2.1428,2.155,2.1567,2.157,2.1623,2.1624,2.1625,2.1639,2.1638,2.1637,2.1636,2.1712,2.1715,2.1719,2.1761,0,0,2.1731,2.1733,0,0,0,0,0,0,0,0,2.1483,2.1491,2.1564,2.1566,2.1569,2.1621,2.1608,2.1671,2.1639,2.1613,2.1637,2.1636,2.1684,2.169,2.1705,2.1765,2.1768,2.1731,2.1734,2.1735,2.1737,0,0,0,0,0,0,0,2.1479,2.1488,2.1579,2.1565,2.1568,2.1572,2.158,2.162,2.1652,2.1615,2.1616,2.1624,2.1685,2.1702,2.1707,2.1769,2.1731,2.1735,2.1737,2.1739,2.1867,2.1868,0,0,0,0,0,0,2.1471,2.1485,2.1577,2.1581,2.1523,2.1575,2.1584,2.1605,2.1652,2.1658,2.1625,2.1625,2.1695,2.1703,2.171,2.1763,2.1735,2.1739,2.1741,2.1866,2.1867,2.1869,0,0,0,0,0,0,2.1469,2.1479,2.1574,2.1533,2.1546,2.1578,2.1602,2.1607,2.1624,2.1659,2.1666,2.1636,2.1695,2.1705,2.1748,2.1765,2.1741,2.1744,2.1865,2.1866,2.1868,2.1868,0,0,0,0,0,0,2.1465,2.1478,2.1494,2.1534,2.1548,2.161,2.1603,2.1609,2.163,2.1631,2.1672,2.1678,2.1695,2.1742,2.1752,2.177,2.1747,2.1863,2.1866,2.1867,2.1866,2.1869,2.1871,0,0,0,0,0,2.146,2.1491,2.1495,2.1506,2.1568,2.1611,2.1619,2.1638,2.1632,2.1648,2.1671,2.1676,2.1762,2.1747,2.1758,2.1777,2.1862,2.1865,2.1867,2.1865,2.1869,2.1871,0,0,0,0,0,0,2.1453,2.1497,2.1501,2.1545,2.1574,2.1613,2.1635,2.1641,2.1673,2.1672,2.1695,2.1704,2.1747,2.1767,2.1749,2.1821,2.1812,2.1817,2.1806,2.181,2.1812,2.1807,2.1751,0,0,0,0,0,2.1457,2.1488,2.1524,2.156,2.1574,2.1602,2.1621,2.1634,2.1665,2.1677,2.1704,2.1734,2.1768,2.179,2.1823,2.1869,2.1879,2.1888,2.1891,2.1893,2.1897,2.1923,2.1928,2.1877,2.1877,2.1876,0,0,2.1465,2.1492,2.151,2.1559,2.1583,2.1615,2.1612,2.1646,2.1671,2.1683,2.1726,2.1746,2.1782,2.1827,2.1848,2.1845,2.1913,2.1896,2.1897,2.19,2.1926,2.1931,2.1936,2.1878,2.1878,2.1878,0,0,2.1495,2.1519,2.1551,2.1576,2.1612,2.163,2.1638,2.1676,2.169,2.1733,2.1743,2.1773,2.183,2.1856,2.1876,2.1917,2.1923,2.1927,2.1941,2.1966,2.1971,2.1974,2.199,2.1995,2.1931,2.1931,2.1931,0,2.1501,2.1549,2.1568,2.1602,2.1623,2.1635,2.1669,2.1691,2.1737,2.1752,2.1747,2.182,2.1845,2.1897,2.1907,2.1922,2.1933,2.1923,2.1968,2.1972,2.1976,2.1991,2.1997,2.1931,2.1931,2.1931,2.1931,0,2.1554,2.1587,2.161,2.1653,2.1677,2.171,2.1735,2.1757,2.1767,2.1786,2.1831,2.1861,2.1901,2.1914,2.1924,2.1967,2.1964,2.1964,2.1955,2.1981,2.1995,2.2001,2.1932,2.1932,2.1931,2.1931,0,0,2.1583,2.1635,2.1643,2.1663,2.1704,2.1731,2.1765,2.1804,2.1823,2.1854,2.1884,2.1933,2.1932,2.1956,2.1969,2.1991,2.2023,2.1988,2.1989,2.1994,2.2073,2.2074,2.208,2.2027,2.2028,2.2029,2.207,0,2.1619,2.168,2.1698,2.175,2.1782,2.1794,2.1824,2.1853,2.1871,2.1901,2.1923,2.1957,2.1954,2.1968,2.1991,2.2014,2.2039,2.2011,2.2056,2.2057,2.2047,2.2087,2.2088,2.2126,2.2076,2.2077,2.2078,0,2.1669,2.1701,2.1755,2.1793,2.1807,2.1833,2.1871,2.1899,2.1932,2.1944,2.197,2.1982,2.2019,2.2008,2.206,2.2041,2.2061,2.2075,2.2077,2.2082,2.2069,2.2094,2.2138,2.2144,2.2087,2.2086,2.2085,0,2.1685,2.1741,2.1782,2.1798,2.1843,2.1861,2.1881,2.1913,2.1935,2.1968,2.1982,2.2019,2.2039,2.2068,2.2089,2.2079,2.214,2.2131,2.2152,2.2151,2.2165,2.2164,2.2212,2.2176,2.2176,2.2176,2.2176,0,2.1724,2.1758,2.179,2.1814,2.1852,2.1873,2.191,2.1931,2.1959,2.1989,2.2001,2.2029,2.2055,2.2087,2.2104,2.2145,2.2154,2.2165,2.217,2.2165,2.2163,2.2178,2.2176,2.2177,2.2177,2.2177,2.2176,0,2.1749,2.1772,2.1817,2.1855,2.1865,2.1891,2.1925,2.195,2.1969,2.2006,2.2016,2.2047,2.2084,2.2108,2.2156,2.2168,2.2213,2.2216,2.2202,2.2204,2.2224,2.2222,2.2285,2.2294,2.2251,2.2251,2.2251,0,2.1773,2.1799,2.1839,2.186,2.1879,2.1912,2.1935,2.1956,2.1979,2.2019,2.204,2.2078,2.211,2.217,2.2196,2.2233,2.2238,2.2257,2.2244,2.2238,2.2239,2.2238,2.2241,2.226,2.226,2.226,2.2261,0,2.1813,2.1823,2.1854,2.189,2.1916,2.1946,2.1975,2.1991,2.2018,2.2044,2.2082,2.2107,2.2155,2.2194,2.2233,2.2254,2.2262,2.2265,2.2272,2.2267,2.2258,2.2264,2.2208,2.2263,2.2263,2.2263,2.2263,2.2263,2.1838,2.1862,2.1894,2.1929,2.1954,2.1981,2.2006,2.2029,2.2061,2.2102,2.2113,2.2153,2.2186,2.224,2.2262,2.2294,2.2292,2.2302,2.2304,2.2307,2.2307,2.2252,2.2301,2.2301,2.2301,2.2301,2.2301,0,2.1879,2.1901,2.1933,2.1973,2.2001,2.2005,2.2038,2.2061,2.2096,2.2126,2.2157,2.2202,2.2239,2.2269,2.2307,2.2327,2.2332,2.2337,2.2336,2.2341,2.2307,2.2297,2.2332,2.2332,2.2332,2.2332,2.2332,2.2332,2.1904,2.1945,2.1958,2.2011,2.2033,2.2072,2.209,2.2116,2.214,2.2189,2.2219,2.2238,2.2269,2.2309,2.2344,2.2352,2.2366,2.237,2.2378,2.2346,2.2343,2.234,2.2331,2.2372,2.2372,2.241,2.241,2.241]},{"header":{"parameterUnit":"m.s-1","parameterCategory":1,"la1":30.2991,"la2":30.254,"lo1":-89.0895,"lo2":-89.0444,"dy":0.0017,"dx":0.0017,"nx":28,"ny":28,"refTime":"2023-07-19T03:00:00:Z","depth":0,"parameterNumber":3,"parameterNumberName":"V-component_of_WINDS"},"data":[0,0,0,0,0,0,0,0,0,0,0,0,0,0,0,0,0,0,0,0,0,0,0,0,0,0,0,0,0,0,0,0,0,0,0,0,0,0,0,0,0,0,0,0,0,0,0,0,0,0,0,0,0,0,0,0,0,0,-0.3108,-0.3108,0,-0.3143,-0.3144,-0.3144,-0.3158,-0.3158,-0.3158,-0.3158,-0.3194,-0.3195,-0.3196,0,0,0,0,0,0,0,0,0,0,0,0,0,-0.3053,-0.3054,-0.3108,-0.3108,-0.3109,-0.3143,-0.3144,-0.3144,-0.3158,-0.3158,-0.3158,-0.3158,-0.3193,-0.3195,-0.3196,0,0,0,0,0,0,0,0,0,0,0,0,0,-0.3082,-0.3055,-0.3108,-0.312,-0.3121,-0.3143,-0.3144,-0.3144,-0.3158,-0.3158,-0.3158,-0.3158,-0.3193,-0.3194,-0.3196,-0.3208,0,0,-0.3201,-0.3201,0,0,0,0,0,0,0,0,-0.308,-0.3084,-0.3118,-0.3119,-0.3121,-0.3146,-0.3138,-0.3166,-0.3158,-0.3144,-0.3158,-0.3158,-0.3178,-0.3181,-0.3188,-0.321,-0.3211,-0.3201,-0.3202,-0.3202,-0.3203,0,0,0,0,0,0,0,-0.3078,-0.3082,-0.3122,-0.3118,-0.312,-0.3124,-0.3128,-0.3143,-0.3161,-0.3145,-0.3147,-0.3151,-0.3179,-0.3186,-0.3189,-0.3212,-0.3201,-0.3202,-0.3203,-0.3204,-0.3247,-0.3247,0,0,0,0,0,0,-0.3074,-0.308,-0.3121,-0.3123,-0.31,-0.3125,-0.3129,-0.3138,-0.3161,-0.3165,-0.3151,-0.3151,-0.3183,-0.3187,-0.319,-0.3206,-0.3202,-0.3204,-0.3205,-0.3247,-0.3247,-0.3247,0,0,0,0,0,0,-0.3073,-0.3078,-0.3119,-0.3102,-0.3108,-0.3126,-0.3136,-0.3139,-0.3146,-0.3165,-0.3169,-0.3155,-0.3184,-0.3188,-0.3204,-0.3208,-0.3205,-0.3206,-0.3247,-0.3247,-0.3247,-0.3239,0,0,0,0,0,0,-0.3071,-0.3077,-0.3081,-0.3102,-0.3109,-0.3132,-0.3136,-0.314,-0.3149,-0.315,-0.317,-0.3173,-0.3184,-0.3201,-0.3205,-0.321,-0.3207,-0.3246,-0.3247,-0.3247,-0.3239,-0.3239,-0.3239,0,0,0,0,0,-0.3069,-0.3077,-0.3082,-0.3086,-0.3114,-0.3132,-0.3136,-0.3149,-0.3149,-0.3154,-0.3167,-0.3172,-0.3207,-0.3203,-0.3207,-0.3212,-0.3246,-0.3247,-0.3247,-0.3239,-0.3239,-0.3239,0,0,0,0,0,0,-0.3056,-0.308,-0.3085,-0.31,-0.3114,-0.3135,-0.3141,-0.3148,-0.3162,-0.3162,-0.3177,-0.3181,-0.3196,-0.3206,-0.3201,-0.3226,-0.3227,-0.3228,-0.3219,-0.3219,-0.3219,-0.3217,-0.3208,0,0,0,0,0,-0.3055,-0.3068,-0.3088,-0.3099,-0.3106,-0.3122,-0.3131,-0.3139,-0.3154,-0.316,-0.3174,-0.3188,-0.3203,-0.3211,-0.3225,-0.3241,-0.3246,-0.3246,-0.3246,-0.3246,-0.3247,-0.3257,-0.3258,-0.3249,-0.3249,-0.3249,0,0,-0.3053,-0.3067,-0.3074,-0.3097,-0.3109,-0.3122,-0.3127,-0.314,-0.3151,-0.3162,-0.3178,-0.3189,-0.3206,-0.3222,-0.323,-0.3231,-0.3251,-0.3247,-0.3247,-0.3248,-0.3258,-0.3259,-0.3259,-0.3249,-0.3249,-0.3249,0,0,-0.3055,-0.3067,-0.3079,-0.3091,-0.3109,-0.312,-0.3123,-0.3143,-0.3151,-0.3167,-0.3177,-0.3189,-0.3213,-0.3225,-0.3235,-0.3244,-0.325,-0.3248,-0.3248,-0.3257,-0.3258,-0.3259,-0.3263,-0.3264,-0.3249,-0.3249,-0.3249,0,-0.305,-0.307,-0.3083,-0.3097,-0.3107,-0.3119,-0.3131,-0.3142,-0.3164,-0.317,-0.3171,-0.3203,-0.3215,-0.3234,-0.3237,-0.3244,-0.3248,-0.3245,-0.3257,-0.3258,-0.3259,-0.3263,-0.3264,-0.3249,-0.3249,-0.3249,-0.3249,0,-0.3063,-0.3077,-0.3084,-0.3105,-0.3116,-0.3128,-0.3144,-0.3154,-0.3162,-0.3173,-0.3191,-0.3206,-0.3224,-0.323,-0.3237,-0.3251,-0.3251,-0.3254,-0.3255,-0.3259,-0.3263,-0.3264,-0.3248,-0.3248,-0.3248,-0.3248,0,0,-0.3057,-0.3087,-0.3089,-0.31,-0.3122,-0.3133,-0.3146,-0.3164,-0.3173,-0.3188,-0.32,-0.3221,-0.3224,-0.3235,-0.3244,-0.3252,-0.326,-0.3255,-0.3256,-0.3256,-0.3277,-0.3274,-0.3276,-0.3264,-0.3265,-0.3265,-0.3276,0,-0.3063,-0.3087,-0.3101,-0.312,-0.3133,-0.3146,-0.3158,-0.3173,-0.3184,-0.3197,-0.321,-0.3225,-0.3228,-0.3235,-0.3244,-0.3257,-0.3264,-0.3256,-0.3276,-0.3277,-0.3271,-0.3278,-0.3275,-0.3284,-0.3277,-0.3277,-0.3278,0,-0.3072,-0.3088,-0.3109,-0.313,-0.3137,-0.3147,-0.3165,-0.3178,-0.3196,-0.3203,-0.3216,-0.3226,-0.3241,-0.3241,-0.3263,-0.3258,-0.3267,-0.3275,-0.3275,-0.3278,-0.3277,-0.3281,-0.3287,-0.3289,-0.328,-0.328,-0.328,0,-0.3066,-0.3093,-0.3109,-0.3117,-0.3143,-0.315,-0.3161,-0.3179,-0.3189,-0.3206,-0.3213,-0.323,-0.324,-0.3254,-0.3268,-0.3267,-0.3289,-0.329,-0.3296,-0.3296,-0.33,-0.3299,-0.3308,-0.3305,-0.3305,-0.3305,-0.3305,0,-0.3071,-0.3084,-0.3107,-0.3117,-0.3131,-0.3147,-0.3161,-0.3173,-0.3189,-0.3202,-0.3214,-0.3226,-0.3244,-0.3258,-0.3269,-0.3286,-0.3291,-0.3298,-0.33,-0.3297,-0.3296,-0.3303,-0.3302,-0.3306,-0.3306,-0.3306,-0.3306,0,-0.3067,-0.3083,-0.3102,-0.3125,-0.3131,-0.3141,-0.3161,-0.3171,-0.3184,-0.32,-0.3205,-0.3224,-0.3242,-0.3258,-0.3281,-0.3289,-0.3306,-0.331,-0.33,-0.3302,-0.3307,-0.3307,-0.3321,-0.3324,-0.3319,-0.3319,-0.3319,0,-0.3069,-0.3079,-0.3104,-0.3114,-0.3125,-0.314,-0.3151,-0.3167,-0.3179,-0.3201,-0.3209,-0.3227,-0.3243,-0.3271,-0.3287,-0.3305,-0.3309,-0.3313,-0.3312,-0.3309,-0.331,-0.331,-0.3311,-0.3313,-0.3313,-0.3313,-0.3313,0,-0.3072,-0.3079,-0.3095,-0.3114,-0.3127,-0.3143,-0.3158,-0.3166,-0.3185,-0.3197,-0.3216,-0.3228,-0.3253,-0.3271,-0.3292,-0.3303,-0.3312,-0.3313,-0.3316,-0.3312,-0.3306,-0.331,-0.33,-0.3313,-0.3313,-0.3313,-0.3313,-0.3313,-0.3071,-0.3081,-0.31,-0.3118,-0.3132,-0.3147,-0.3158,-0.3172,-0.3188,-0.321,-0.3218,-0.3238,-0.3257,-0.3285,-0.3297,-0.3312,-0.3314,-0.3317,-0.3318,-0.3319,-0.3318,-0.3304,-0.3316,-0.3316,-0.3316,-0.3316,-0.3316,0,-0.3074,-0.3088,-0.3104,-0.3126,-0.314,-0.3147,-0.3166,-0.3177,-0.3194,-0.3211,-0.3227,-0.3249,-0.3267,-0.3286,-0.3305,-0.3314,-0.3319,-0.3319,-0.3319,-0.3321,-0.3315,-0.3312,-0.3315,-0.3315,-0.3315,-0.3315,-0.3315,-0.3315,-0.3078,-0.3095,-0.3106,-0.3131,-0.3144,-0.3163,-0.3173,-0.3187,-0.3201,-0.3225,-0.3241,-0.3253,-0.3271,-0.3293,-0.3311,-0.3316,-0.3322,-0.3322,-0.3328,-0.3322,-0.3322,-0.3321,-0.3318,-0.3323,-0.3323,-0.3333,-0.3333,-0.3333]}]]